Miles City, MT

4:05 AM MST on February 21, 2017 (GMT -0700)
Wiley

Weather History for KMLS - July, 2013

Change the Weather History Date:

Saturday, July 13, 2013

  Actual Average Record
Temperature  
Mean Temperature 79 °F 74 °F  
Max Temperature 96 °F 88 °F 106 °F (2005)
Min Temperature 61 °F 59 °F 46 °F (1943)
Degree Days  
Heating Degree Days 0 0  
Month to date heating degree days 0 10  
Since 1 June heating degree days 59 99  
Since 1 July heating degree days 0 10  
Cooling Degree Days 14 9  
Month to date cooling degree days 167 104  
Year to date cooling degree days 273 231  
Since 1 June cooling degree days 260 211  
Growing Degree Days 28 (Base 50)    
Moisture  
Dew Point 53 °F    
Average Humidity 41    
Maximum Humidity 57    
Minimum Humidity 24    
Precipitation  
Precipitation 0.04 in 0.05 in 1.22 in (1962)
Month to date precipitation 0.43 0.74  
Year to date precipitation 11.46 7.95  
Sea Level Pressure  
Sea Level Pressure 29.89 in    
Wind  
Wind Speed 14 mph (ENE)    
Max Wind Speed 35 mph    
Max Gust Speed 41 mph    
Visibility 10 miles    
Events Rain    
T = Trace of Precipitation, MM = Missing Value Source: NWS Daily Summary

Daily Weather History Graph

Daily Weather History Graph

Search for Another Location

Airport or City:

Trip Planner

Search our weather history database for the weather conditions in past years. The results will help you decide how hot, cold, wet, or windy it might be!

Date:

Astronomy

Jul. 13, 2013 Rise Set
Actual Time 5:24 AM MDT 8:53 PM MDT
Civil Twilight 4:46 AM MDT 9:31 PM MDT
Nautical Twilight 3:56 AM MDT 10:20 PM MDT
Astronomical Twilight 2:51 AM MDT 11:25 PM MDT
Moon 11:05 AM MDT (7/13) 11:11 PM MDT (7/13)
Length of Visible Light 16h 44m
Length of Day
15h 29m
Waxing Crescent, 26% of the Moon is Illuminated
Jul 13
Waxing Crescent
Jul 15
First Quarter
Jul 22
Full
Jul 29
Last Quarter
Aug 6
New

Hourly Weather History & Observations

Time (MDT) Temp. Heat Index Dew Point Humidity Pressure Visibility Wind Dir Wind Speed Gust Speed Precip Events Conditions
12:53 AM 70.0 °F - 48.9 °F 47% 29.83 in 10.0 mi SSE 11.5 mph - N/A   Clear
1:53 AM 70.0 °F - 50.0 °F 49% 29.81 in 10.0 mi SSE 9.2 mph - N/A   Clear
2:53 AM 70.0 °F - 50.0 °F 49% 29.83 in 10.0 mi North 6.9 mph - N/A   Clear
3:53 AM 69.1 °F - 50.0 °F 51% 29.83 in 10.0 mi ENE 10.4 mph - N/A   Clear
4:53 AM 66.0 °F - 50.0 °F 56% 29.83 in 10.0 mi ENE 6.9 mph - N/A   Clear
5:53 AM 69.1 °F - 52.0 °F 54% 29.83 in 10.0 mi ESE 6.9 mph - N/A   Clear
6:53 AM 69.1 °F - 54.0 °F 58% 29.83 in 10.0 mi SE 10.4 mph - N/A   Clear
7:53 AM 73.9 °F - 55.0 °F 52% 29.84 in 10.0 mi SSE 12.7 mph 19.6 mph N/A   Clear
8:53 AM 78.1 °F - 55.9 °F 46% 29.83 in 10.0 mi SSE 15.0 mph - N/A   Clear
9:53 AM 82.0 °F 81.7 °F 57.0 °F 42% 29.83 in 10.0 mi South 13.8 mph 24.2 mph N/A   Clear
10:53 AM 87.1 °F 86.7 °F 60.1 °F 40% 29.83 in 10.0 mi SSE 10.4 mph - N/A   Clear
11:53 AM 88.0 °F 87.1 °F 59.0 °F 37% 29.83 in 10.0 mi WSW 9.2 mph - N/A   Clear
12:53 PM 91.0 °F 88.5 °F 53.1 °F 27% 29.83 in 10.0 mi WSW 8.1 mph - N/A   Clear
1:53 PM 93.0 °F - 52.0 °F 25% 29.82 in 10.0 mi Variable 5.8 mph - N/A   Clear
2:53 PM 93.9 °F - 52.0 °F 24% 29.83 in 10.0 mi WNW 15.0 mph 19.6 mph N/A   Clear
3:53 PM 93.0 °F 91.7 °F 57.0 °F 30% 29.85 in 10.0 mi NNW 20.7 mph 26.5 mph N/A   Clear
4:53 PM 91.0 °F 89.2 °F 55.9 °F 30% 29.87 in 10.0 mi NNW 23.0 mph 28.8 mph N/A   Clear
5:53 PM 86.0 °F 84.5 °F 55.0 °F 35% 29.91 in 10.0 mi NNW 28.8 mph 39.1 mph N/A   Clear
6:53 PM 79.0 °F - 53.1 °F 40% 29.96 in 10.0 mi North 31.1 mph 38.0 mph N/A   Clear
7:53 PM 75.0 °F - 51.1 °F 43% 30.00 in 10.0 mi North 23.0 mph 33.4 mph N/A   Clear
8:53 PM 71.1 °F - 51.1 °F 49% 30.08 in 10.0 mi NE 23.0 mph 31.1 mph N/A   Partly Cloudy
9:53 PM 68.0 °F - 50.0 °F 52% 30.11 in 10.0 mi NE 16.1 mph 28.8 mph N/A   Partly Cloudy
10:53 PM 64.9 °F - 48.9 °F 56% 30.12 in 10.0 mi ENE 15.0 mph - N/A   Partly Cloudy
11:53 PM 63.0 °F - 51.1 °F 65% 30.15 in 7.0 mi NE 12.7 mph - 0.03 in Rain Rain